sat.trackr.live / text

‹ back to catalog

STARLINK-35941

NORAD 66583 · 2025-268AC

PAYLOAD ACTIVE UNKNOWN

§ Identity

Operator
Country
US
Launch date
2025-11-21
Launch site
AFETR
Launch vehicle
Mass (kg)
RCS (m²)

Purposes: comms

External: N2YO · Heavens-Above · Gunter

§ Orbital elements

Epoch: 2026-05-25T01:29:15.757152Z

Period
94.27 min
Inclination
42.9999°
Eccentricity
0.0002226
Mean motion
15.27596640 rev/d
Perigee alt
481.5 km
Apogee alt
484.5 km
Semi-major
6,861.1 km
B*
4.9599e-4
RAAN
275.4220°
Arg perigee
272.1885°
Mean anomaly
87.8712°
Rev number
2,964

§ Raw data

STARLINK-359411 66583U 25268AC  26145.06198793  .00013419  00000+0  49599-3 0  99982 66583  42.9999 275.4220 0002226 272.1885  87.8712 15.27596640 29648

JSON: /api/v1/satellites/66583 · /tle

For live sub-satellite position, see the globe view (requires WebGL).

§ Visibility from observer

Set your observer location to see the next 7 days of passes ≥ 10°. The values pass through the URL so the page stays shareable.

No JS? Fill the form by hand. The geolocation button needs JavaScript.